{"data":{"norad_id":65652,"epoch":"2026-09-20T13:52:41.763360Z","epoch_age_seconds":101964,"freshness":"FRESH","line1":"1 65652U 25211A   26263.57826115  .00018933  00000+0  58711-3 0  9997","line2":"2 65652  97.2853 303.7796 0000761 112.4434 247.6890 15.33455359 56536","mean_motion":15.33455359,"eccentricity":7.61e-5,"inclination_deg":97.2853,"raan_deg":303.7796,"arg_perigee_deg":112.4434,"mean_anomaly_deg":247.689,"bstar":0.00058711,"rev_number":5653,"period_min":93.905570289249,"perigee_km":464.99155184001,"apogee_km":466.03315527162,"semimajor_km":6843.6493535558,"source":"CELESTRAK","updated_at":"2026-09-21T09:00:35.678762Z"}}